[[{"header":{"parameterUnit":"m.s-1","parameterCategory":1,"la1":30.2991,"la2":30.254,"lo1":-89.0895,"lo2":-89.0444,"dx":0.0017,"dy":0.0017,"nx":28,"ny":28,"refTime":"2022-11-03T21:00:00:Z","depth":0,"parameterNumber":2,"parameterNumberName":"U-component_of_WINDS"},"data":[0,0,0,0,0,0,0,0,0,0,0,0,0,0,0,0,0,0,0,0,0,0,0,0,0,0,0,0,0,0,0,0,0,0,0,0,0,0,0,0,0,0,0,0,0,0,0,0,0,0,0,0,0,0,0,0,0,0,-4.0213,-4.0214,0,-4.0326,-4.0328,-4.0329,-4.0338,-4.0337,-4.0336,-4.0335,-4.0451,-4.0455,-4.046,0,0,0,0,0,0,0,0,0,0,0,0,0,-4.0006,-4.001,-4.0213,-4.0214,-4.0216,-4.0326,-4.0328,-4.0329,-4.0339,-4.0337,-4.0336,-4.0334,-4.045,-4.0455,-4.046,0,0,0,0,0,0,0,0,0,0,0,0,0,-4.0105,-4.0011,-4.0213,-4.0234,-4.0237,-4.0326,-4.0328,-4.033,-4.0339,-4.0337,-4.0335,-4.0334,-4.0448,-4.0454,-4.0461,-4.0537,0,0,-4.048,-4.0483,0,0,0,0,0,0,0,0,-4.01,-4.0113,-4.0229,-4.0233,-4.0236,-4.0316,-4.0298,-4.0399,-4.0339,-4.03,-4.0335,-4.0333,-4.0408,-4.0418,-4.0443,-4.0542,-4.0547,-4.0481,-4.0485,-4.0487,-4.0489,0,0,0,0,0,0,0,-4.0093,-4.0108,-4.0258,-4.0231,-4.0235,-4.0238,-4.025,-4.0317,-4.0363,-4.0303,-4.0304,-4.0318,-4.0409,-4.0437,-4.0446,-4.0549,-4.0481,-4.0486,-4.049,-4.0493,-4.0717,-4.0719,0,0,0,0,0,0,-4.0082,-4.0102,-4.0254,-4.0261,-4.0162,-4.0243,-4.0257,-4.0292,-4.0362,-4.0371,-4.0319,-4.0318,-4.0427,-4.0438,-4.045,-4.0543,-4.0487,-4.0493,-4.0497,-4.0715,-4.0718,-4.072,0,0,0,0,0,0,-4.0077,-4.0095,-4.025,-4.0182,-4.0202,-4.0249,-4.0289,-4.0296,-4.0323,-4.0374,-4.0382,-4.0338,-4.0426,-4.0441,-4.0515,-4.0548,-4.0496,-4.0502,-4.0713,-4.0716,-4.0719,-4.0731,0,0,0,0,0,0,-4.0071,-4.0093,-4.0122,-4.0183,-4.0206,-4.0313,-4.0291,-4.0299,-4.0334,-4.0333,-4.0394,-4.0403,-4.0425,-4.0506,-4.0522,-4.0555,-4.0507,-4.071,-4.0714,-4.0718,-4.0728,-4.0735,-4.074,0,0,0,0,0,-4.0064,-4.0121,-4.0124,-4.0142,-4.0243,-4.0315,-4.0328,-4.0353,-4.0336,-4.0366,-4.0399,-4.0401,-4.0542,-4.0513,-4.0531,-4.0567,-4.0708,-4.0713,-4.0718,-4.0726,-4.0733,-4.074,0,0,0,0,0,0,-4.0064,-4.013,-4.0133,-4.0212,-4.0258,-4.0316,-4.0354,-4.036,-4.0411,-4.0408,-4.0437,-4.0451,-4.0524,-4.0554,-4.0521,-4.0645,-4.0623,-4.0632,-4.0623,-4.0631,-4.0637,-4.0628,-4.0512,0,0,0,0,0,-4.0073,-4.0125,-4.018,-4.0245,-4.0268,-4.0307,-4.0339,-4.0355,-4.0403,-4.0423,-4.0461,-4.0508,-4.0564,-4.0599,-4.0653,-4.0733,-4.0747,-4.0767,-4.0773,-4.0778,-4.0784,-4.0829,-4.0839,-4.0736,-4.0736,-4.0736,0,0,-4.0092,-4.0135,-4.0166,-4.0246,-4.0283,-4.0337,-4.0323,-4.0381,-4.0422,-4.0431,-4.0504,-4.0534,-4.0589,-4.0667,-4.0703,-4.0693,-4.0816,-4.0784,-4.0787,-4.0791,-4.0835,-4.0845,-4.0854,-4.0739,-4.0739,-4.0738,0,0,-4.0155,-4.0193,-4.025,-4.0288,-4.0345,-4.0371,-4.0385,-4.0443,-4.0463,-4.0537,-4.0545,-4.0594,-4.0688,-4.0727,-4.0759,-4.0838,-4.0842,-4.0855,-4.0885,-4.0929,-4.0937,-4.0944,-4.0972,-4.0982,-4.0862,-4.0862,-4.0862,0,-4.0172,-4.0253,-4.0279,-4.0337,-4.0372,-4.0384,-4.0443,-4.0478,-4.055,-4.0574,-4.0562,-4.0681,-4.0719,-4.0806,-4.0825,-4.0851,-4.0868,-4.0848,-4.0934,-4.0942,-4.0949,-4.0976,-4.0986,-4.0863,-4.0863,-4.0863,-4.0863,0,-4.0271,-4.0328,-4.0368,-4.0436,-4.0476,-4.0534,-4.0569,-4.0606,-4.0619,-4.0646,-4.0721,-4.0767,-4.083,-4.0852,-4.0865,-4.0942,-4.0934,-4.0928,-4.0906,-4.0959,-4.0985,-4.0996,-4.0865,-4.0865,-4.0864,-4.0864,0,0,-4.0336,-4.0419,-4.0433,-4.0464,-4.0528,-4.0573,-4.0632,-4.0694,-4.0725,-4.0774,-4.0824,-4.0905,-4.09,-4.0936,-4.0953,-4.0992,-4.1051,-4.0981,-4.0983,-4.0992,-4.1139,-4.1142,-4.1154,-4.1055,-4.1057,-4.1058,-4.1134,0,-4.0406,-4.051,-4.0536,-4.0626,-4.0678,-4.0691,-4.0743,-4.0788,-4.0815,-4.0865,-4.0896,-4.0952,-4.0941,-4.0963,-4.1002,-4.1036,-4.1081,-4.1031,-4.1101,-4.1104,-4.1086,-4.1167,-4.1171,-4.124,-4.1144,-4.1146,-4.1147,0,-4.0501,-4.0552,-4.0647,-4.0704,-4.0727,-4.0773,-4.0832,-4.0879,-4.0931,-4.0948,-4.0989,-4.1003,-4.1066,-4.1042,-4.1128,-4.1094,-4.1125,-4.1146,-4.1149,-4.1156,-4.1128,-4.1175,-4.1263,-4.1273,-4.1163,-4.1162,-4.1161,0,-4.0538,-4.0631,-4.0699,-4.0726,-4.0795,-4.0827,-4.0857,-4.0907,-4.0943,-4.0995,-4.1018,-4.1077,-4.1109,-4.1154,-4.1183,-4.1163,-4.1268,-4.1246,-4.1284,-4.1283,-4.1304,-4.1303,-4.1397,-4.1326,-4.1326,-4.1325,-4.1325,0,-4.0612,-4.067,-4.0717,-4.0759,-4.0824,-4.0853,-4.0917,-4.0948,-4.0992,-4.1041,-4.1056,-4.1102,-4.1138,-4.1189,-4.1213,-4.1281,-4.1295,-4.1311,-4.1317,-4.131,-4.1307,-4.1329,-4.1325,-4.1328,-4.1328,-4.1327,-4.1327,0,-4.0664,-4.0698,-4.0774,-4.0833,-4.0849,-4.0895,-4.0946,-4.0988,-4.1016,-4.1078,-4.1094,-4.1139,-4.1199,-4.1234,-4.131,-4.1326,-4.1402,-4.1405,-4.1384,-4.1386,-4.1422,-4.1418,-4.1533,-4.155,-4.1468,-4.1468,-4.1469,0,-4.0709,-4.0754,-4.0818,-4.0851,-4.0882,-4.0936,-4.0973,-4.1004,-4.1041,-4.1104,-4.1138,-4.12,-4.1251,-4.1347,-4.1387,-4.1445,-4.145,-4.1486,-4.1459,-4.145,-4.145,-4.1447,-4.1451,-4.1491,-4.1491,-4.1492,-4.1493,0,-4.0785,-4.08,-4.0852,-4.091,-4.0953,-4.1,-4.1047,-4.1074,-4.1113,-4.1155,-4.1217,-4.1256,-4.1334,-4.1395,-4.1457,-4.1489,-4.1498,-4.1501,-4.1513,-4.1505,-4.1491,-4.1499,-4.1396,-4.1498,-4.1497,-4.1497,-4.1497,-4.1497,-4.0835,-4.0875,-4.0926,-4.0984,-4.1022,-4.1066,-4.1108,-4.1142,-4.1194,-4.126,-4.1276,-4.1341,-4.1393,-4.1477,-4.151,-4.1562,-4.1556,-4.1573,-4.1577,-4.158,-4.1581,-4.1484,-4.1574,-4.1574,-4.1574,-4.1573,-4.1573,0,-4.0912,-4.0945,-4.0998,-4.1063,-4.1108,-4.1112,-4.1165,-4.1203,-4.126,-4.1307,-4.1357,-4.1428,-4.1488,-4.1532,-4.1593,-4.1626,-4.1632,-4.1641,-4.1639,-4.1646,-4.1584,-4.1568,-4.1636,-4.1636,-4.1636,-4.1636,-4.1636,-4.1636,-4.0957,-4.1025,-4.1046,-4.1133,-4.1167,-4.1231,-4.126,-4.1301,-4.1339,-4.1418,-4.1467,-4.1496,-4.1543,-4.1607,-4.1662,-4.1674,-4.1695,-4.1704,-4.1716,-4.1657,-4.165,-4.1644,-4.1629,-4.1709,-4.1709,-4.1774,-4.1775,-4.1775]},{"header":{"parameterUnit":"m.s-1","parameterCategory":1,"la1":30.2991,"la2":30.254,"lo1":-89.0895,"lo2":-89.0444,"dx":0.0017,"dy":0.0017,"nx":28,"ny":28,"refTime":"2022-11-03T21:00:00:Z","depth":0,"parameterNumber":3,"parameterNumberName":"V-component_of_WINDS"},"data":[0,0,0,0,0,0,0,0,0,0,0,0,0,0,0,0,0,0,0,0,0,0,0,0,0,0,0,0,0,0,0,0,0,0,0,0,0,0,0,0,0,0,0,0,0,0,0,0,0,0,0,0,0,0,0,0,0,0,5.3921,5.3922,0,5.4018,5.4019,5.402,5.4009,5.4008,5.4006,5.4005,5.4102,5.4106,5.4109,0,0,0,0,0,0,0,0,0,0,0,0,0,5.3725,5.3728,5.392,5.3922,5.3923,5.4018,5.4019,5.402,5.401,5.4008,5.4006,5.4004,5.41,5.4105,5.411,0,0,0,0,0,0,0,0,0,0,0,0,0,5.3814,5.3729,5.392,5.3929,5.3931,5.4017,5.4019,5.4021,5.401,5.4008,5.4005,5.4003,5.4099,5.4105,5.4111,5.4193,0,0,5.4129,5.4131,0,0,0,0,0,0,0,0,5.3809,5.3822,5.3927,5.3929,5.3931,5.3999,5.3985,5.4078,5.4011,5.398,5.4005,5.4002,5.4069,5.4078,5.4101,5.4198,5.4202,5.4129,5.4133,5.4136,5.4137,0,0,0,0,0,0,0,5.3803,5.3817,5.3959,5.3928,5.3931,5.3928,5.3938,5.4003,5.4036,5.3982,5.3982,5.3994,5.407,5.4095,5.4103,5.4204,5.4129,5.4135,5.4138,5.4141,5.4376,5.4378,0,0,0,0,0,0,5.3795,5.3812,5.3956,5.3962,5.3863,5.3933,5.3945,5.398,5.4035,5.4042,5.3996,5.3993,5.4086,5.4096,5.4106,5.4209,5.4136,5.4141,5.4145,5.4373,5.4376,5.4379,0,0,0,0,0,0,5.3791,5.3808,5.3952,5.3887,5.3905,5.3939,5.3978,5.3983,5.4008,5.4045,5.4051,5.4015,5.4084,5.4098,5.4173,5.4212,5.4144,5.4149,5.437,5.4374,5.4378,5.4413,0,0,0,0,0,0,5.3785,5.3807,5.3839,5.3888,5.3909,5.4017,5.3981,5.3986,5.4018,5.4016,5.4065,5.4071,5.4084,5.4164,5.4179,5.4219,5.4154,5.4367,5.4372,5.4377,5.4408,5.4417,5.4425,0,0,0,0,0,5.3778,5.3843,5.384,5.3858,5.395,5.4019,5.4031,5.4045,5.4022,5.4054,5.4079,5.407,5.4205,5.4171,5.4188,5.4231,5.4364,5.437,5.4376,5.4404,5.4416,5.4425,0,0,0,0,0,0,5.3796,5.385,5.3847,5.393,5.3971,5.4017,5.4059,5.4056,5.4103,5.4098,5.4112,5.4124,5.42,5.4222,5.4184,5.4315,5.4281,5.4291,5.4297,5.4308,5.4317,5.431,5.4159,0,0,0,0,0,5.381,5.3863,5.3907,5.3976,5.3996,5.4024,5.4055,5.4062,5.4104,5.4121,5.4151,5.4191,5.4243,5.4277,5.4326,5.4412,5.4423,5.4449,5.4458,5.4464,5.4473,5.4521,5.4534,5.4399,5.4399,5.4399,0,0,5.3839,5.3875,5.3907,5.398,5.4013,5.4067,5.4038,5.4096,5.4137,5.4129,5.4203,5.4226,5.4272,5.4353,5.439,5.4374,5.4513,5.4472,5.4477,5.4482,5.4528,5.4541,5.4553,5.4403,5.4402,5.4402,0,0,5.3919,5.3951,5.4014,5.4047,5.4096,5.4115,5.413,5.4178,5.4194,5.4268,5.4264,5.4312,5.44,5.4434,5.4462,5.4558,5.4552,5.4574,5.4618,5.4665,5.4676,5.4685,5.472,5.4733,5.4582,5.4582,5.4582,0,5.3949,5.4031,5.4045,5.4105,5.4138,5.4135,5.4198,5.423,5.4292,5.4315,5.4297,5.4409,5.444,5.453,5.4553,5.4576,5.4594,5.4568,5.4673,5.4683,5.4692,5.4726,5.4739,5.4584,5.4584,5.4583,5.4583,0,5.4065,5.4122,5.4166,5.4229,5.4267,5.4328,5.4352,5.4388,5.4392,5.4413,5.4489,5.4526,5.4584,5.4605,5.4609,5.4696,5.4685,5.467,5.4637,5.4707,5.4739,5.4752,5.4587,5.4587,5.4586,5.4585,0,0,5.4159,5.423,5.4246,5.4275,5.4331,5.4375,5.4436,5.4494,5.4526,5.4569,5.4622,5.4698,5.4685,5.4717,5.4725,5.4766,5.4842,5.4746,5.4748,5.4764,5.4941,5.4953,5.4967,5.4838,5.484,5.4842,5.4937,0,5.4246,5.4355,5.4371,5.4467,5.4521,5.452,5.4573,5.4613,5.4634,5.4683,5.4705,5.476,5.4738,5.4758,5.4798,5.4824,5.4877,5.4817,5.4887,5.4889,5.4876,5.4984,5.4996,5.5084,5.495,5.4952,5.4954,0,5.4361,5.441,5.4513,5.4563,5.4586,5.4633,5.4689,5.4735,5.478,5.4793,5.483,5.4834,5.4898,5.4862,5.495,5.4909,5.4938,5.4955,5.4959,5.4966,5.4926,5.4995,5.5112,5.5126,5.4973,5.4972,5.497,0,5.4421,5.4512,5.4586,5.4611,5.467,5.4704,5.473,5.4774,5.4808,5.4856,5.4879,5.4933,5.4963,5.5005,5.5024,5.4996,5.5111,5.5077,5.5124,5.5123,5.5148,5.5146,5.5272,5.5166,5.5166,5.5166,5.5165,0,5.4517,5.458,5.4614,5.4659,5.473,5.4747,5.4817,5.4842,5.4881,5.4931,5.4932,5.4979,5.5,5.5051,5.5065,5.5137,5.515,5.5162,5.5165,5.5162,5.5161,5.5182,5.5177,5.5169,5.5168,5.5168,5.5167,0,5.4596,5.4621,5.4701,5.4752,5.4766,5.4816,5.4859,5.4903,5.4924,5.4988,5.5004,5.5037,5.5096,5.5119,5.519,5.52,5.5284,5.5281,5.5269,5.527,5.5316,5.5312,5.5461,5.5482,5.536,5.5362,5.5363,0,5.4655,5.4704,5.4761,5.4795,5.4823,5.4878,5.4914,5.4933,5.497,5.5027,5.5064,5.5123,5.5172,5.5267,5.5297,5.5353,5.5353,5.5401,5.5361,5.5357,5.5355,5.5352,5.5357,5.5408,5.541,5.5411,5.5411,0,5.476,5.477,5.4822,5.4879,5.4922,5.4968,5.5012,5.5039,5.5065,5.5107,5.5169,5.5207,5.5281,5.5341,5.5398,5.5425,5.5423,5.5424,5.5438,5.5436,5.5427,5.5434,5.529,5.542,5.542,5.5419,5.5418,5.5418,5.4832,5.4876,5.4923,5.4981,5.5017,5.5058,5.5103,5.513,5.5182,5.5245,5.5253,5.532,5.5365,5.5442,5.5471,5.5524,5.5511,5.5531,5.5536,5.5541,5.5545,5.5418,5.5534,5.5534,5.5533,5.5533,5.5533,0,5.4937,5.4968,5.5021,5.5084,5.513,5.5125,5.5174,5.5213,5.5272,5.5314,5.5363,5.5434,5.5492,5.5528,5.5586,5.5621,5.5622,5.5636,5.5634,5.564,5.5552,5.5535,5.5635,5.5635,5.5635,5.5635,5.5635,5.5635,5.4997,5.5072,5.5088,5.5181,5.5211,5.5277,5.5306,5.5344,5.5379,5.5459,5.5508,5.5531,5.5571,5.5633,5.5686,5.5695,5.5716,5.5732,5.574,5.5657,5.5646,5.5636,5.562,5.5736,5.5736,5.5824,5.5825,5.5825]}]]